Regional Weather Roundup
Issued by NWS

Home | Current Version | Previous Version | Text Only | Print | Product List | Glossary On
Versions: 1 2 3 4 5 6 7 8 9 10 11 12 13 14 15 16 17 18 19 20 21 22 23 24 25 26 27 28 29 30 31 32 33 34 35 36 37 38 39 40 41 42 43 44 45 46 47 48 49 50
000
ASUS43 KMKX 081821
RWRWI

WISCONSIN REGIONAL WEATHER ROUNDUP
NATIONAL WEATHER SERVICE MILWAUKEE/SULLIVAN WI
1200 PM CST THU DEC 08 2016

NOTE: "FAIR" INDICATES FEW OR NO CLOUDS BELOW 12,000 FEET WITH NO
SIGNIFICANT WEATHER AND/OR OBSTRUCTIONS TO VISIBILITY.

WIZ001-002-006>008-014>016-023>028-081900-
NORTHWEST WISCONSIN

CITY           SKY/WX    TMP DP  RH WIND       PRES   REMARKS
SUPERIOR ARPT  CLOUDY    26  16  67 NW18      30.29R WCI  12
6HR MIN TEMP:  22; 6HR MAX TEMP:  26;

ASHLAND        CLOUDY    27  20  75 NW13      30.23R WCI  16
6HR MIN TEMP:  21; 6HR MAX TEMP:  28; 6HR PCP: TRACE;

HAYWARD        CLOUDY    24  15  68 NW7G20    30.24R WCI  16
6HR MIN TEMP:  19; 6HR MAX TEMP:  24; 6HR PCP: TRACE;

SIREN          CLOUDY    24  15  69 NW14      30.30S WCI  12
6HR MIN TEMP:  21; 6HR MAX TEMP:  24;

CUMBERLAND     CLOUDY    23  14  68 NW16G23   30.26R WCI  10
RICE LAKE      CLOUDY    24  16  71 W14       30.28S WCI  12
6HR MIN TEMP:  19; 6HR MAX TEMP:  24;

CHETEK         CLOUDY    24  16  71 NW9       30.27R WCI  14
6HR MIN TEMP:  18; 6HR MAX TEMP:  24;

LADYSMITH      CLOUDY    24  17  73 NW13G18   30.24R WCI  13
6HR MIN TEMP:  19; 6HR MAX TEMP:  24;

EAU CLAIRE     CLOUDY    24  15  68 NW12      30.28R WCI  13
6HR MIN TEMP:  18; 6HR MAX TEMP:  24; 6HR PCP: TRACE;

MENOMONIE      CLOUDY    26  17  67 W14       30.30R WCI  14
6HR MIN TEMP:  19; 6HR MAX TEMP:  26;

NEW RICHMOND   FLURRIES  24  16  71 NW13      30.32R WCI  13
6HR MIN TEMP:  17; 6HR MAX TEMP:  24;

OSCEOLA        CLOUDY    25  17  70 NW14G21   30.36S WCI  13
6HR MIN TEMP:  19; 6HR MAX TEMP:  25;

$$

WIZ003>005-009-010-017-018-081900-
NORTH CENTRAL WISCONSIN

CITY           SKY/WX    TMP DP  RH WIND       PRES   REMARKS
MANITOWISH WTR MOSUNNY   24  19  82 NW8G17    30.11R WCI  15
6HR MIN TEMP:  17; 6HR MAX TEMP:  24;

ARBOR VITAE    CLOUDY    27  20  76 NW12G21   30.10S WCI  16
6HR MIN TEMP:  21; 6HR MAX TEMP:  27;

WOODRUFF       CLOUDY    27  20  76 NW12G21   30.10S WCI  16
6HR MIN TEMP:  21; 6HR MAX TEMP:  27;

RHINELANDER    LGT SNOW  25  19  78 W13G18    30.10R WCI  14
6HR MIN TEMP:  18; 6HR MAX TEMP:  26; 6HR PCP: TRACE;

EAGLE RIVER    LGT SNOW  26  19  74 NW13      30.08R WCI  15
6HR MIN TEMP:  18; 6HR MAX TEMP:  26;

LAND O LAKES   PTSUNNY   26  20  78 N12G21    30.09R WCI  16
6HR MIN TEMP:  19; 6HR MAX TEMP:  26;

PHILLIPS       CLOUDY    24  16  73 NW10G17   30.16R WCI  13
6HR MIN TEMP:  17; 6HR MAX TEMP:  24;

TOMAHAWK       CLOUDY    24  16  71 NW12G20   30.14R WCI  13
6HR MIN TEMP:  16; 6HR MAX TEMP:  24;

MEDFORD        CLOUDY    22  15  73 NW12G20   30.17R WCI  11
6HR MIN TEMP:  14; 6HR MAX TEMP:  22;

MERRILL        CLOUDY    26  17  68 NW14G20   30.15R WCI  14
6HR MIN TEMP:  16; 6HR MAX TEMP:  26;

$$

WIZ029-030-035-036-043>047-081900-
CENTRAL WISCONSIN

CITY           SKY/WX    TMP DP  RH WIND       PRES   REMARKS
WAUSAU         CLOUDY    25  15  66 NW12      30.15R WCI  14
6HR MIN TEMP:  15; 6HR MAX TEMP:  25; 6HR PCP: TRACE;

MOSINEE        CLOUDY    25  19  80 NW15G22   30.17R WCI  12
MARSHFIELD     CLOUDY    23  16  74 NW16      30.19R WCI  10
6HR MIN TEMP:  14; 6HR MAX TEMP:  23; 6HR PCP: TRACE;

STEVENS POINT  CLOUDY    23  15  71 NW9G17    30.19R WCI  13
6HR MIN TEMP:  14; 6HR MAX TEMP:  23;

WAUPACA        MOSUNNY   29  18  64 W13G28    30.18S WCI  18
6HR MIN TEMP:  19; 6HR MAX TEMP:  29;

WAUTOMA        FLURRIES  23  17  78 W15       30.22R WCI  10
6HR MIN TEMP:  15; 6HR MAX TEMP:  23; 6HR PCP:  0.01;

WISC RAPIDS    CLOUDY    24  17  74 NW15      30.22R WCI  11
6HR MIN TEMP:  15; 6HR MAX TEMP:  24; 6HR PCP: TRACE;

CAMP DOUGLAS   CLOUDY    23  16  74 W14       30.25R WCI  11
                                      6HR PCP: TRACE;

$$

WIZ011>013-019>022-031-037>040-048>050-081900-
NORTHEAST WISCONSIN

CITY           SKY/WX    TMP DP  RH WIND       PRES   REMARKS
ANTIGO         CLOUDY    24  17  73 NW12      30.10R WCI  13
6HR MIN TEMP:  14; 6HR MAX TEMP:  25;

SHAWANO        CLOUDY    31  19  59 NW10G20   30.14R WCI  23
6HR MIN TEMP:  20; 6HR MAX TEMP:  32;

OCONTO         PTSUNNY   31  17  56 NW13G21   30.09S WCI  22
6HR MIN TEMP:  19; 6HR MAX TEMP:  31;

STURGEON BAY   MOSUNNY   31  20  63 W20G25    30.06F WCI  19
6HR MIN TEMP:  20; 6HR MAX TEMP:  31;

GREEN BAY      FLURRIES  31  21  66 W20G29    30.12S WCI  19
6HR MIN TEMP:  20; 6HR MAX TEMP:  31; 6HR PCP: TRACE;

MANITOWOC      SUNNY     28  18  66 W20G25    30.12S WCI  15
6HR MIN TEMP:  19; 6HR MAX TEMP:  28; 6HR PCP: TRACE;

APPLETON       PTSUNNY   27  16  63 W17       30.13S WCI  14
CLINTONVILLE   PTSUNNY   28  18  64 NW17G25   30.14S WCI  16
OSHKOSH        PTSUNNY   26  17  68 NW21G26   30.16S WCI  12
6HR MIN TEMP:  17; 6HR MAX TEMP:  26; 6HR PCP: TRACE;

$$

WIZ032>034-041-042-053>061-081900-
SOUTHWEST WISCONSIN

CITY           SKY/WX    TMP DP  RH WIND       PRES   REMARKS
LA CROSSE      CLOUDY    25  16  68 NW17      30.32R WCI  12
6HR MIN TEMP:  19; 6HR MAX TEMP:  25; 6HR PCP: TRACE;

SPARTA         CLOUDY    23  17  77 W10       30.29S WCI  12
6HR MIN TEMP:  17; 6HR MAX TEMP:  23;

VIROQUA        CLOUDY    21  16  80 W13       30.27S WCI   8
6HR MIN TEMP:  14; 6HR MAX TEMP:  21;

BOSCOBEL       CLOUDY    23  14  68 W15G21    30.34S WCI  10
6HR MIN TEMP:  16; 6HR MAX TEMP:  23; 6HR PCP: TRACE;

PRAIRIE DU CHI CLOUDY    23  14  67 W15       30.35S WCI  10
6HR MIN TEMP:  15; 6HR MAX TEMP:  23;

PLATTEVILLE    CLOUDY    21  16  81 W18       30.32S WCI   6
6HR MIN TEMP:  13; 6HR MAX TEMP:  21;

$$

WIZ056-057-062-063-064-067-068-081900-
SOUTH CENTRAL WISCONSIN

CITY           SKY/WX    TMP DP  RH WIND       PRES   REMARKS
REEDSBURG      FLURRIES  22  15  77 W9G17     30.26S WCI  11
6HR MIN TEMP:  15; 6HR MAX TEMP:  22;

BARABOO/DELLS  FLURRIES  21  15  76 W12       30.25R WCI   9
6HR MIN TEMP:  14; 6HR MAX TEMP:  21;

LONE ROCK      CLOUDY    23  14  68 W15       30.31R WCI  10
6HR MIN TEMP:  15; 6HR MAX TEMP:  23; 6HR PCP: TRACE;

MINERAL POINT  FLURRIES  23  18  80 NW15      30.27S WCI  10
MADISON        CLOUDY    21  13  71 W13G22    30.25S WCI   9
6HR MIN TEMP:  14; 6HR MAX TEMP:  21; 6HR PCP: TRACE;

MIDDLETON      CLOUDY    23  16  73 W12G21    30.26R WCI  12
6HR MIN TEMP:  15; 6HR MAX TEMP:  23;

WATERTOWN      CLOUDY    22  15  75 W16G22    30.22S WCI   8
6HR MIN TEMP:  15; 6HR MAX TEMP:  22;

MONROE         CLOUDY    21  14  73 W16G24    30.27S WCI   7
JANESVILLE     CLOUDY    21  14  73 W15G21    30.27S WCI   8
$$

WIZ051-052-058>065-066-070>072-081900-
SOUTHEAST WISCONSIN

CITY           SKY/WX    TMP DP  RH WIND       PRES   REMARKS
MILWAUKEE      FLURRIES  24  11  57 W18G31    30.20S WCI  10
6HR MIN TEMP:  19; 6HR MAX TEMP:  24; 6HR PCP: TRACE;

WAUKESHA       CLOUDY    19  12  73 W21G29    30.21R WCI   3
MILWAUKEE/TIMM CLOUDY    21  10  63 W21G26    30.21R WCI   6
RACINE         PTSUNNY   22  11  62 W21G30    30.22R WCI   6
6HR MIN TEMP:  19; 6HR MAX TEMP:  23; 6HR PCP: TRACE;

BURLINGTON     CLOUDY    26  19  75 W14G24    30.23F WCI  14
6HR MIN TEMP:  16; 6HR MAX TEMP:  26;

KENOSHA        PTSUNNY   21  12  68 W23       30.22S WCI   5
6HR MIN TEMP:  17; 6HR MAX TEMP:  23; 6HR PCP: TRACE;

FOND DU LAC    PTSUNNY   25  15  66 W18G30    30.17S WCI  11
6HR MIN TEMP:  18; 6HR MAX TEMP:  25; 6HR PCP: TRACE;

SHEBOYGAN      MOSUNNY   26  16  65 W18G30    30.14R WCI  13
6HR MIN TEMP:  18; 6HR MAX TEMP:  26; 6HR PCP: TRACE;

WEST BEND      NOT AVBL
JUNEAU         CLOUDY    21  15  75 W10G16    30.22R WCI  10
6HR MIN TEMP:  15; 6HR MAX TEMP:  21;

$$

LSZ147-162-081900-
LAKE SUPERIOR

STATION/POSITION TIME  TEMP    WIND        PRES    WAVE
                       AIR SEA DIR/SP/G            HT/PER
                 (UTC) (F)     (DEG/KT/KT) (MB)    (FT/S)
DEVILS ISLAND    1800   27     330/ 22/ 25 1024.5R
PORT WING        1730   27     310/ 16/ 21 1024.4S
SAXON HARBOR     1739   30     330/ 17/ 26 1022.0S
$$

LMZ867-665-643>646-081900-
LAKE MICHIGAN

STATION/POSITION TIME  TEMP    WIND        PRES    WAVE
               C1F1C2F2C3F3C4F4C5F5C6F6C7F7C8M1C9M2Ca!


USA.gov is the U.S. government's official web portal to all federal, state and local government web resources and services.